EW1390 Weather Reports


time (UTC)temp
C
wind
direction
speed
KPH
gust
KPH
rain 1hr
cm
rain 24hr
cm
rain mn
cm
humidity
%
barometer
mb
20260906061554 14 319 0.0 0.0 0.00 0.00 0.00 68 1006.6
20260906060121 15 319 0.0 4.8 0.00 0.00 0.00 68 1006.5
20260906054606 15 231 0.0 4.8 0.00 0.00 0.00 67 1006.5
20260906053052 15 231 0.0 4.8 0.00 0.00 0.00 66 1006.6
20260906051551 15 231 1.6 4.8 0.00 0.00 0.00 66 1006.4
20260906050051 15 231 0.0 3.2 0.00 0.00 0.00 66 1006.4
20260906044550 16 231 0.0 3.2 0.00 0.00 0.00 65 1006.3
20260906043051 16 231 0.0 1.6 0.00 0.00 0.00 64 1006.2
20260906041549 16 231 0.0 0.0 0.00 0.00 0.00 63 1006.2
20260906040048 17 231 0.0 0.0 0.00 0.00 0.00 62 1006.1
20260906034559 17 231 0.0 0.0 0.00 0.00 0.00 61 1006.1
20260906033047 17 231 0.0 0.0 0.00 0.00 0.00 60 1006.0
20260906031549 18 231 0.0 0.0 0.00 0.00 0.00 58 1005.8
20260906030046 19 231 0.0 0.0 0.00 0.00 0.00 56 1005.8
20260906024552 20 231 0.0 0.0 0.00 0.00 0.00 54 1005.6
20260906023146 20 231 0.0 1.6 0.00 0.00 0.00 53 1005.7
20260906021545 21 231 0.0 0.0 0.00 0.00 0.00 50 1005.7
20260906020043 22 231 0.0 0.0 0.00 0.00 0.00 46 1005.7
20260906014548 23 231 0.0 6.4 0.00 0.00 0.00 43 1005.7
20260906013041 23 319 0.0 11.3 0.00 0.00 0.00 42 1005.7
20260906011539 24 288 0.0 6.4 0.00 0.00 0.00 42 1005.7
20260906010043 25 187 0.0 4.8 0.00 0.00 0.00 40 1005.7
20260906004541 25 186 0.0 4.8 0.00 0.00 0.00 39 1005.7
20260906003034 26 184 1.6 6.4 0.00 0.00 0.00 38 1005.8
20260906001547 26 227 1.6 9.7 0.00 0.00 0.00 38 1005.8
20260906000035 26 86 0.0 11.3 0.00 0.00 0.00 38 1005.7
20260905234532 26 153 1.6 8.0 0.00 0.00 0.00 37 1005.7
20260905233032 26 229 0.0 11.3 0.00 0.00 0.00 38 1005.7
20260905231529 26 236 1.6 9.7 0.00 0.00 0.00 36 1005.9
20260905230033 27 311 1.6 8.0 0.00 0.00 0.00 36 1006.0
20260905224526 26 130 0.0 11.3 0.00 0.00 0.00 36 1006.2
20260905223041 26 42 3.2 14.5 0.00 0.00 0.00 37 1006.3
20260905221524 26 114 3.2 14.5 0.00 0.00 0.00 37 1006.3
20260905220024 26 195 3.2 11.3 0.00 0.00 0.00 36 1006.3
20260905214521 26 223 1.6 11.3 0.00 0.00 0.00 38 1006.4
20260905213021 26 214 3.2 9.7 0.00 0.00 0.00 37 1006.5
20260905211522 26 82 1.6 12.9 0.00 0.00 0.00 37 1006.7
20260905210021 26 94 1.6 8.0 0.00 0.00 0.00 37 1006.6
20260905204515 26 288 1.6 9.7 0.00 0.00 0.00 37 1006.5
20260905203016 26 149 3.2 14.5 0.00 0.00 0.00 37 1006.8
20260905201521 26 296 1.6 12.9 0.00 0.00 0.00 38 1006.8
20260905200009 26 40 1.6 9.7 0.00 0.00 0.00 39 1007.0
20260905194508 26 333 1.6 8.0 0.00 0.00 0.00 37 1007.0
20260905193014 25 97 3.2 11.3 0.00 0.00 0.00 39 1007.1
20260905191502 25 104 1.6 16.1 0.00 0.00 0.00 40 1007.3
20260905190100 25 169 0.0 8.0 0.00 0.00 0.00 39 1007.5
20260905184607 24 125 1.6 8.0 0.00 0.00 0.00 38 1007.5
20260905183057 24 263 1.6 9.7 0.00 0.00 0.00 40 1007.5
20260905181555 23 204 0.0 16.1 0.00 0.00 0.00 42 1007.5
20260905180050 23 218 0.0 6.4 0.00 0.00 0.00 43 1007.5
20260905174545 22 152 0.0 6.4 0.00 0.00 0.00 45 1007.5
20260905173049 21 217 0.0 4.8 0.00 0.00 0.00 47 1007.3
20260905171538 20 217 0.0 4.8 0.00 0.00 0.00 56 1007.3
20260905170034 18 217 0.0 0.0 0.00 0.00 0.00 64 1007.3
20260905164530 17 217 0.0 0.0 0.00 0.00 0.00 71 1007.3
20260905163027 16 217 0.0 0.0 0.00 0.00 0.00 75 1007.3
20260905161520 15 217 0.0 0.0 0.00 0.00 0.00 78 1007.3
20260905160018 14 217 0.0 0.0 0.00 0.00 0.00 78 1007.3
20260905154517 13 217 0.0 0.0 0.00 0.00 0.00 78 1007.1
20260905153025 13 217 0.0 0.0 0.00 0.00 0.00 77 1007.1
20260905151514 13 217 0.0 0.0 0.00 0.00 0.00 77 1007.1
20260905150020 12 217 0.0 0.0 0.00 0.00 0.00 77 1007.0
20260905144515 12 217 0.0 0.0 0.00 0.00 0.00 76 1007.1
20260905143015 12 217 0.0 0.0 0.00 0.00 0.00 75 1007.0
20260905141513 12 217 0.0 0.0 0.00 0.00 0.00 75 1007.0
20260905140009 12 217 0.0 0.0 0.00 0.00 0.00 75 1006.8
20260905134518 11 217 0.0 0.0 0.00 0.00 0.00 75 1006.7
20260905133010 11 217 0.0 0.0 0.00 0.00 0.00 75 1006.6
20260905131509 11 217 0.0 0.0 0.00 0.00 0.00 74 1006.4
20260905130006 11 217 0.0 0.0 0.00 0.00 0.00 73 1006.3
20260905124504 12 217 0.0 0.0 0.00 0.00 0.00 72 1006.5
20260905123007 12 217 0.0 0.0 0.00 0.00 0.00 72 1006.5
20260905121501 12 217 0.0 0.0 0.00 0.00 0.00 72 1006.5
20260905120001 12 217 0.0 0.0 0.00 0.00 0.00 72 1006.6
20260905114600 12 217 0.0 0.0 0.00 0.00 0.00 71 1006.5
20260905113106 12 217 0.0 1.6 0.00 0.00 0.00 71 1006.6
20260905111600 12 217 0.0 0.0 0.00 0.00 0.00 70 1006.7
20260905110055 12 217 0.0 0.0 0.00 0.00 0.00 70 1006.8
20260905104555 12 217 0.0 1.6 0.00 0.00 0.00 70 1006.8
20260905103100 12 217 0.0 0.0 0.00 0.00 0.00 70 1006.8
20260905101553 12 217 0.0 1.6 0.00 0.00 0.00 70 1006.8
20260905100100 12 217 0.0 0.0 0.00 0.00 0.00 70 1006.9
20260905094551 12 217 0.0 0.0 0.00 0.00 0.00 70 1006.8
20260905093050 12 217 0.0 0.0 0.00 0.00 0.00 69 1006.9
20260905091554 12 217 0.0 0.0 0.00 0.00 0.00 69 1007.0
20260905090046 12 217 0.0 0.0 0.00 0.00 0.00 68 1006.9
20260905084553 12 217 0.0 0.0 0.00 0.00 0.00 66 1006.9
20260905083040 13 217 0.0 0.0 0.00 0.00 0.00 66 1007.0
20260905081537 13 217 0.0 0.0 0.00 0.00 0.00 64 1006.9
20260905074533 15 217 0.0 0.0 0.00 0.00 0.00 63 1007.0
20260905073032 15 217 0.0 0.0 0.00 0.00 0.00 62 1006.9
20260905071531 15 217 0.0 0.0 0.00 0.00 0.00 62 1006.9
20260905070036 15 217 0.0 0.0 0.00 0.00 0.00 62 1006.9
20260905064526 15 217 0.0 0.0 0.00 0.00 0.00 60 1006.8
20260905063026 15 217 0.0 0.0 0.00 0.00 0.00 59 1006.7